Regional Weather Roundup
Issued by NWS

Home | Current Version | Previous Version | Graphics & Text | Print | Product List | Glossary On
Versions: 1 2 3 4 5 6 7 8 9 10 11 12 13 14 15 16 17 18 19 20 21 22 23 24 25 26 27 28 29 30 31 32 33 34 35 36 37 38 39 40 41 42 43 44 45 46 47 48 49 50
000
ASUS43 KDMX 270903
RWRIA

WEATHER ROUNDUP FOR IOWA
NATIONAL WEATHER SERVICE DES MOINES IA
400 AM CDT TUE SEP 27 2016

NOTE: "FAIR" INDICATES FEW OR NO CLOUDS BELOW 12,000 FEET WITH NO
SIGNIFICANT WEATHER AND/OR OBSTRUCTIONS TO VISIBILITY.

* - THESE STATIONS ARE NOT NWS STATIONS...THUS NOT UNDER NWS
QUALITY CONTROL.  THEY ALSO DO NOT REPORT WEATHER SUCH
AS PRECIPITATION OR FOG.

IAZ001>003-012>014-020>022-031>034-043>046-271000-
   NORTHWEST IOWA

CITY           SKY/WX    TMP DP  RH WIND       PRES   REMARKS
ORANGE CITY *  CLEAR     43  39  87 W5        30.01F
SIOUX CITY     CLEAR     48  43  82 W3        30.03F
SPENCER        CLEAR     44  38  79 W7        29.99F
$$

IAZ055>058-069>071-079>083-090>094-271000-
   SOUTHWEST IOWA

CITY           SKY/WX    TMP DP  RH WIND       PRES   REMARKS
LAMONI         CLEAR     53  45  74 W7        30.01F HAZE
$$

IAZ047>049-059>061-072>074-084-271000-
   CENTRAL IOWA

CITY           SKY/WX    TMP DP  RH WIND       PRES   REMARKS
AMES           CLEAR     54  40  59 NW9       29.97F
DES MOINES     CLEAR     52  44  74 W3        29.99S
MARSHALLTOWN   CLEAR     48  41  76 W7        29.95F
$$

IAZ004>006-015-016-023>025-035-036-271000-
   NORTH CENTRAL IOWA

CITY           SKY/WX    TMP DP  RH WIND       PRES   REMARKS
ESTHERVILLE    CLEAR     44  37  76 W8        29.96F
FORT DODGE *   CLEAR     46  36  66 CALM      29.98F
MASON CITY     CLEAR     46  37  71 W12       29.93F
WEBSTER CITY * CLEAR     45  43  93 W8        29.95F
$$

IAZ007>011-017>019-026>030-037>042-050>054-066-271000-
   NORTHEAST IOWA

CITY           SKY/WX    TMP DP  RH WIND       PRES   REMARKS
CEDAR RAPIDS   CLEAR     45  42  89 W5        29.93F
CHARLES CITY * CLEAR     48  37  66 W8        29.91F
CLINTON *      CLEAR     45  42  89 W7        29.91F
DUBUQUE        CLEAR     46  39  76 W6        29.89F
WATERLOO       CLEAR     48  40  73 W7        29.91F
$$

IAZ064-065-067-068-078-271000-
   EAST CENTRAL IOWA

CITY           SKY/WX    TMP DP  RH WIND       PRES   REMARKS
DAVENPORT      CLEAR     51  43  74 W8        29.94S
IOWA CITY      CLEAR     49  42  77 W7        29.95F
QUAD CITIES    CLEAR     50  43  77 W7        29.93F
$$

IAZ062-063-075>077-085>089-095>099-271000-
   SOUTHEAST IOWA

CITY           SKY/WX    TMP DP  RH WIND       PRES   REMARKS
BURLINGTON     CLEAR     52  46  80 W6        29.96F
FORT MADISON * CLEAR     54  46  76 W5        29.98S
OSKALOOSA *      N/A     47  42  82 W7        29.98S
OTTUMWA        CLEAR     48  42  80 W8        29.97F
$$

ABBREVIATIONS USED IN REMARKS
   TC - TEMPERATURES IN CELSIUS
  WCI - WIND CHILL INDEX
   HX - HEAT INDEX
  VSB - VISIBILITY
$$





USA.gov is the U.S. government's official web portal to all federal, state and local government web resources and services.